Regional Weather Roundup
Issued by NWS

Home | Current Version | Previous Version | Graphics & Text | Print | Product List | Glossary On
Versions: 1 2 3 4 5 6 7 8 9 10 11 12 13 14 15 16 17 18 19 20 21 22 23 24 25 26 27 28 29 30 31 32 33 34 35 36 37 38 39 40 41 42 43 44 45 46 47 48 49 50
000
ASUS43 KTOP 161759
RWRKS

WEATHER ROUNDUP FOR KANSAS
NATIONAL WEATHER SERVICE GOODLAND KS
100 PM CDT TUE SEP 16 2014

NOTE:  "FAIR" INDICATES FEW OR NO CLOUDS BELOW 12,000 FEET WITH NO
SIGNIFICANT WEATHER AND/OR OBSTRUCTIONS TO VISIBILITY.

KSZ001>006-013>018-027>032-041>047-161900-
NORTHWEST KANSAS

CITY           SKY/WX    TMP DP  RH WIND       PRES   REMARKS
GOODLAND       SUNNY     73  55  53 S12G22    30.10F
6HR MIN TEMP:  58; 6HR MAX TEMP:  73;

HAYS           CLOUDY    64  52  63 SE14      30.15F
HILL CITY      CLOUDY    66  54  65 S9        30.13F
6HR MIN TEMP:  50; 6HR MAX TEMP:  66;

RUSSELL        CLOUDY    63  52  67 SE12      30.14F
6HR MIN TEMP:  50; 6HR MAX TEMP:  63;

$$

KSZ061>065-074>080-084>089-161900-
SOUTHWEST KANSAS

CITY           SKY/WX    TMP DP  RH WIND       PRES   REMARKS
DODGE CITY     PTSUNNY   74  58  57 S14G22    30.14F
6HR MIN TEMP:  56; 6HR MAX TEMP:  75;

ELKHART          N/A     76  58  53 SW12        N/A
GARDEN CITY    MOSUNNY   73  59  61 SW9G22    30.13F
6HR MIN TEMP:  58; 6HR MAX TEMP:  73;

GREAT BEND     CLOUDY    68  54  60 SE14      30.15F
LIBERAL        SUNNY     77  61  57 SW16      30.16F
$$

KSZ066>073-081>083-090>101-161900-
SOUTHEAST KANSAS

CITY           SKY/WX    TMP DP  RH WIND       PRES   REMARKS
CHANUTE        MOSUNNY   71  59  65 VRB3      30.16F
6HR MIN TEMP:  58; 6HR MAX TEMP:  71;

COFFEYVILLE    CLOUDY    68  50  53 MISG      30.16F
6HR MIN TEMP:  60; 6HR MAX TEMP:  68;

HUTCHINSON     CLOUDY    70  52  52 SE8       30.15F
6HR MIN TEMP:  56; 6HR MAX TEMP:  70;

NEWTON         CLOUDY    70  50  49 E6        30.18F
PARSONS        CLOUDY    70  60  70 VRB5      30.17F
6HR MIN TEMP:  60; 6HR MAX TEMP:  70;

WICHITA INTL   CLOUDY    70  54  56 E6        30.15F
6HR MIN TEMP:  60; 6HR MAX TEMP:  71;

WICHITA JABRA  CLOUDY    69  54  58 S7        30.15F
6HR MIN TEMP:  56; 6HR MAX TEMP:  69;

WICHITA MCCONL CLOUDY    73  54  49 S2        30.16F
WINFIELD       CLOUDY    68  58  70 NE6       30.17F
6HR MIN TEMP:  61; 6HR MAX TEMP:  68;

$$

KSZ007>012-019>026-033>040-048>060-102>105-161900-
NORTHEAST KANSAS

CITY           SKY/WX    TMP DP  RH WIND       PRES   REMARKS
CONCORDIA      CLOUDY    65  51  60 SE9       30.16F
6HR MIN TEMP:  44; 6HR MAX TEMP:  65;

EMPORIA        SUNNY     69  50  50 VRB3      30.16F
6HR MIN TEMP:  47; 6HR MAX TEMP:  69;

LAWRENCE       SUNNY     66  50  56 VRB3      30.17F
6HR MIN TEMP:  44; 6HR MAX TEMP:  67;

MANHATTAN      SUNNY     68  49  50 MISG      30.16F
6HR MIN TEMP:  44; 6HR MAX TEMP:  69;

OLATHE IND     SUNNY     66  52  60 VRB5      30.18F
6HR MIN TEMP:  43; 6HR MAX TEMP:  66;

OLATHE EXE     SUNNY     66  54  65 CALM      30.17F
6HR MIN TEMP:  47; 6HR MAX TEMP:  66;

SALINA         CLOUDY    66  51  58 SE7       30.16F
6HR MIN TEMP:  50; 6HR MAX TEMP:  66;

TOPEKA BILLARD SUNNY     68  50  52 VRB5      30.17F
6HR MIN TEMP:  45; 6HR MAX TEMP:  68;

TOPEKA FORBES  SUNNY     67  51  56 VRB3      30.17F
6HR MIN TEMP:  43; 6HR MAX TEMP:  67;

$$


USA.gov is the U.S. government's official web portal to all federal, state and local government web resources and services.